When you browse on this site, cookies collect data to enhance your experience and personalize the content and advertising you see.
Visit our Privacy Policy to learn more. By continuing to use the site, you agree to this use of cookies and data.
  • En España
  • Lista de países
  • Para 7 días
  • Temperatura del agua
  • Mapa Satelital
  • El tiempo en el mapa
  • Informadores
  • user-avatar
    Iniciar sesión

    Tiempo cada hora Barcelona

    Hoy, 22 Mayo, Miércoles

    Tiempo Temperatura Precipitaciones Viento Presión Humedad
    00:00 +29°C° 0.1 mm 3 mps 759 mmHg 73%
    01:00 +28°C° 0.1 mm 2 mps 759 mmHg 75%
    02:00 +28°C° 0.1 mm 2 mps 759 mmHg 76%
    03:00 +28°C° 0 mm 1 mps 759 mmHg 76%
    04:00 +28°C° 0 mm 1 mps 758 mmHg 77%
    05:00 +27°C° 0 mm 1 mps 758 mmHg 77%
    06:00 +29°C° 0 mm 1 mps 759 mmHg 71%
    07:00 +31°C° 0 mm 1 mps 759 mmHg 64%
    08:00 +32°C° 0 mm 1 mps 759 mmHg 58%
    09:00 +35°C° 0 mm 1 mps 759 mmHg 50%
    10:00 +39°C° 0 mm 2 mps 759 mmHg 43%
    11:00 +41°C° 0 mm 2 mps 759 mmHg 35%
    12:00 +39°C° 0.1 mm 3 mps 758 mmHg 41%
    13:00 +38°C° 0.1 mm 3 mps 758 mmHg 46%
    14:00 +36°C° 0.1 mm 4 mps 757 mmHg 52%
    15:00 +35°C° 0.2 mm 4 mps 757 mmHg 53%
    16:00 +35°C° 0.2 mm 4 mps 756 mmHg 55%
    17:00 +35°C° 0.2 mm 4 mps 756 mmHg 56%
    18:00 +33°C° 0.3 mm 4 mps 756 mmHg 62%
    19:00 +32°C° 0.3 mm 4 mps 757 mmHg 68%
    20:00 +30°C° 0.3 mm 4 mps 757 mmHg 73%
    21:00 +29°C° 0.5 mm 3 mps 758 mmHg 74%
    22:00 +29°C° 0.5 mm 3 mps 758 mmHg 74%
    23:00 +29°C° 0.5 mm 2 mps 759 mmHg 75%

    Mañana, 23 Mayo, Jueves

    Tiempo Temperatura Precipitaciones Viento Presión Humedad
    00:00 +28°C° 0 mm 2 mps 758 mmHg 75%
    01:00 +28°C° 0 mm 1 mps 758 mmHg 76%
    02:00 +28°C° 0 mm 1 mps 758 mmHg 76%
    03:00 +28°C° 0 mm 1 mps 758 mmHg 76%
    04:00 +28°C° 0 mm 1 mps 758 mmHg 76%
    05:00 +28°C° 0 mm 1 mps 757 mmHg 76%
    06:00 +29°C° 0 mm 1 mps 758 mmHg 71%
    07:00 +30°C° 0 mm 1 mps 758 mmHg 66%
    08:00 +31°C° 0 mm 2 mps 759 mmHg 61%
    09:00 +34°C° 0 mm 2 mps 759 mmHg 55%
    10:00 +36°C° 0 mm 2 mps 759 mmHg 49%
    11:00 +37°C° 0 mm 3 mps 759 mmHg 43%
    12:00 +37°C° 0 mm 3 mps 759 mmHg 44%
    13:00 +37°C° 0 mm 3 mps 758 mmHg 44%
    14:00 +37°C° 0 mm 3 mps 757 mmHg 45%
    15:00 +36°C° 0 mm 3 mps 757 mmHg 48%
    16:00 +35°C° 0 mm 3 mps 756 mmHg 51%
    17:00 +34°C° 0 mm 3 mps 756 mmHg 54%
    18:00 +33°C° 0 mm 3 mps 756 mmHg 60%
    19:00 +31°C° 0 mm 3 mps 757 mmHg 65%
    20:00 +30°C° 0 mm 3 mps 757 mmHg 71%
    21:00 +30°C° 0.2 mm 3 mps 758 mmHg 71%
    22:00 +30°C° 0.2 mm 3 mps 758 mmHg 72%
    23:00 +29°C° 0.2 mm 3 mps 759 mmHg 73%

    Pasado mañana, 24 Mayo, Viernes

    Tiempo Temperatura Precipitaciones Viento Presión Humedad
    00:00 +29°C° 0.2 mm 2 mps 758 mmHg 73%
    01:00 +29°C° 0.2 mm 2 mps 758 mmHg 73%
    02:00 +29°C° 0.2 mm 2 mps 758 mmHg 74%
    03:00 +28°C° 0.1 mm 1 mps 757 mmHg 75%
    04:00 +28°C° 0.1 mm 1 mps 757 mmHg 77%
    05:00 +27°C° 0.1 mm 1 mps 757 mmHg 79%
    06:00 +29°C° 0.1 mm 1 mps 758 mmHg 73%
    07:00 +30°C° 0.1 mm 1 mps 758 mmHg 67%
    08:00 +32°C° 0.1 mm 1 mps 759 mmHg 60%
    09:00 +34°C° 0.1 mm 1 mps 759 mmHg 52%
    10:00 +38°C° 0.1 mm 2 mps 759 mmHg 44%
    11:00 +41°C° 0.1 mm 2 mps 759 mmHg 35%
    12:00 +39°C° 0.3 mm 2 mps 758 mmHg 43%
    13:00 +36°C° 0.3 mm 3 mps 758 mmHg 52%
    14:00 +34°C° 0.3 mm 3 mps 757 mmHg 60%
    15:00 +33°C° 0.5 mm 3 mps 757 mmHg 62%
    16:00 +33°C° 0.5 mm 3 mps 757 mmHg 63%
    17:00 +33°C° 0.5 mm 3 mps 756 mmHg 65%
    18:00 +31°C° 0.4 mm 3 mps 757 mmHg 69%
    19:00 +30°C° 0.4 mm 4 mps 757 mmHg 73%
    20:00 +29°C° 0.4 mm 4 mps 758 mmHg 78%
    21:00 +29°C° 0.3 mm 4 mps 759 mmHg 79%
    22:00 +29°C° 0.3 mm 4 mps 759 mmHg 79%
    23:00 +28°C° 0.3 mm 4 mps 759 mmHg 80%

    25 Mayo, Sábado

    Tiempo Temperatura Precipitaciones Viento Presión Humedad
    00:00 +28°C° 0.3 mm 3 mps 759 mmHg 82%
    01:00 +28°C° 0.3 mm 3 mps 758 mmHg 83%
    02:00 +28°C° 0.3 mm 3 mps 758 mmHg 85%
    03:00 +27°C° 0 mm 2 mps 758 mmHg 86%
    04:00 +27°C° 0 mm 2 mps 758 mmHg 87%
    05:00 +27°C° 0 mm 1 mps 758 mmHg 88%
    06:00 +28°C° 0 mm 1 mps 758 mmHg 81%
    07:00 +29°C° 0 mm 1 mps 759 mmHg 74%
    08:00 +29°C° 0 mm 0 mps 759 mmHg 67%
    09:00 +33°C° 0 mm 1 mps 759 mmHg 58%
    10:00 +37°C° 0 mm 2 mps 759 mmHg 48%
    11:00 +39°C° 0 mm 2 mps 759 mmHg 38%
    12:00 +39°C° 0 mm 3 mps 758 mmHg 40%
    13:00 +38°C° 0 mm 4 mps 758 mmHg 41%
    14:00 +38°C° 0 mm 4 mps 757 mmHg 43%
    15:00 +37°C° 0 mm 4 mps 756 mmHg 45%
    16:00 +36°C° 0 mm 4 mps 756 mmHg 48%
    17:00 +35°C° 0 mm 5 mps 756 mmHg 51%
    18:00 +34°C° 0 mm 5 mps 757 mmHg 54%
    19:00 +32°C° 0 mm 5 mps 757 mmHg 57%
    20:00 +30°C° 0 mm 5 mps 758 mmHg 60%
    21:00 +29°C° 0 mm 5 mps 758 mmHg 63%
    22:00 +29°C° 0 mm 4 mps 759 mmHg 65%
    23:00 +29°C° 0 mm 4 mps 759 mmHg 67%

    26 Mayo, Domingo

    Tiempo Temperatura Precipitaciones Viento Presión Humedad
    00:00 +28°C° 0 mm 4 mps 759 mmHg 70%
    01:00 +28°C° 0 mm 3 mps 758 mmHg 73%
    02:00 +28°C° 0 mm 2 mps 758 mmHg 76%
    03:00 +28°C° 0 mm 2 mps 758 mmHg 77%
    04:00 +27°C° 0 mm 2 mps 758 mmHg 77%
    05:00 +27°C° 0 mm 1 mps 758 mmHg 78%
    06:00 +29°C° 0 mm 1 mps 758 mmHg 71%
    07:00 +30°C° 0 mm 1 mps 759 mmHg 65%
    08:00 +29°C° 0 mm 0 mps 759 mmHg 59%
    09:00 +34°C° 0 mm 1 mps 759 mmHg 51%
    10:00 +37°C° 0 mm 2 mps 759 mmHg 44%
    11:00 +40°C° 0 mm 3 mps 759 mmHg 37%
    12:00 +39°C° 0 mm 3 mps 758 mmHg 40%
    13:00 +38°C° 0 mm 4 mps 757 mmHg 44%
    14:00 +37°C° 0 mm 4 mps 757 mmHg 47%
    15:00 +36°C° 0 mm 4 mps 756 mmHg 50%
    16:00 +35°C° 0 mm 4 mps 756 mmHg 53%
    17:00 +35°C° 0 mm 4 mps 756 mmHg 56%
    18:00 +33°C° 0.1 mm 4 mps 757 mmHg 61%
    19:00 +32°C° 0.1 mm 4 mps 757 mmHg 66%
    20:00 +30°C° 0.1 mm 4 mps 758 mmHg 71%
    21:00 +30°C° 0.1 mm 4 mps 758 mmHg 72%
    22:00 +29°C° 0.1 mm 3 mps 758 mmHg 73%
    23:00 +29°C° 0.1 mm 3 mps 759 mmHg 74%

    27 Mayo, Lunes

    Tiempo Temperatura Precipitaciones Viento Presión Humedad
    00:00 +29°C° 0 mm 2 mps 758 mmHg 73%
    01:00 +29°C° 0 mm 2 mps 758 mmHg 73%
    02:00 +29°C° 0 mm 2 mps 757 mmHg 72%
    03:00 +28°C° 0 mm 1 mps 757 mmHg 73%
    04:00 +28°C° 0 mm 1 mps 757 mmHg 74%
    05:00 +26°C° 0 mm 0 mps 758 mmHg 74%
    06:00 +29°C° 0 mm 1 mps 758 mmHg 68%
    07:00 +30°C° 0 mm 1 mps 759 mmHg 61%
    08:00 +31°C° 0 mm 1 mps 759 mmHg 54%
    09:00 +35°C° 0 mm 2 mps 759 mmHg 46%
    10:00 +38°C° 0 mm 2 mps 759 mmHg 38%
    11:00 +42°C° 0 mm 3 mps 759 mmHg 29%
    12:00 +42°C° 0 mm 3 mps 758 mmHg 30%
    13:00 +42°C° 0 mm 4 mps 757 mmHg 31%
    14:00 +43°C° 0 mm 4 mps 756 mmHg 32%
    15:00 +40°C° 0 mm 4 mps 756 mmHg 37%
    16:00 +37°C° 0 mm 4 mps 755 mmHg 43%
    17:00 +35°C° 0 mm 4 mps 755 mmHg 48%
    18:00 +34°C° 0 mm 4 mps 756 mmHg 54%
    19:00 +33°C° 0 mm 4 mps 756 mmHg 61%
    20:00 +32°C° 0 mm 4 mps 757 mmHg 67%
    21:00 +30°C° 0 mm 4 mps 757 mmHg 69%
    22:00 +30°C° 0 mm 3 mps 758 mmHg 71%
    23:00 +29°C° 0 mm 3 mps 758 mmHg 73%
    Mostrar más